IWG002 LEXJ-LEMG

Flight info

Callsign IWG002
Flight time N/A
Altitude 33000
Route TITAN N864 VULPE
Aircraft A20N/M-SDE2E3FGHIJ1RWXY/LB1

Departure

Time N/A
Airport Seve Ballesteros-Santander Airport (LEXJ)

Arrival

Time 2026-05-07 16:35
Airport Málaga-Costa del Sol Airport (LEMG)
Time Latitude Longitude Altitude Speed Heading
2026-05-07 16:10 38.90564 -4.56324 32854 ft 453 kts 198°
2026-05-07 16:11 38.87451 -4.56973 32847 ft 453 kts 198°
2026-05-07 16:11 38.81245 -4.58189 32843 ft 454 kts 195°
2026-05-07 16:11 38.78074 -4.58550 32802 ft 461 kts 183°
2026-05-07 16:12 38.74837 -4.58582 32681 ft 460 kts 189°
2026-05-07 16:12 38.68654 -4.59831 32666 ft 448 kts 196°
2026-05-07 16:13 38.62524 -4.61323 32629 ft 450 kts 198°
2026-05-07 16:13 38.56353 -4.62622 32571 ft 449 kts 197°
2026-05-07 16:14 38.50177 -4.63840 32528 ft 449 kts 196°
2026-05-07 16:14 38.47059 -4.64416 32363 ft 452 kts 190°
2026-05-07 16:14 38.43947 -4.64936 32202 ft 449 kts 198°
2026-05-07 16:14 38.40891 -4.65540 32050 ft 448 kts 197°
2026-05-07 16:15 38.37777 -4.66104 31876 ft 452 kts 194°
2026-05-07 16:15 38.34673 -4.66479 31742 ft 451 kts 194°
2026-05-07 16:15 38.31544 -4.66841 31380 ft 448 kts 194°
2026-05-07 16:15 38.28441 -4.67182 31018 ft 442 kts 193°
2026-05-07 16:16 38.25378 -4.67511 30496 ft 438 kts 193°
2026-05-07 16:16 38.22372 -4.67833 29948 ft 435 kts 193°
2026-05-07 16:16 38.19351 -4.68156 29315 ft 432 kts 193°
2026-05-07 16:16 38.16387 -4.68471 28687 ft 428 kts 193°
2026-05-07 16:17 38.13410 -4.68788 28084 ft 425 kts 192°
2026-05-07 16:17 38.10473 -4.69101 27555 ft 421 kts 192°
2026-05-07 16:17 38.07603 -4.69407 27060 ft 416 kts 192°
2026-05-07 16:17 38.04724 -4.69714 26421 ft 414 kts 192°
2026-05-07 16:18 38.01857 -4.70023 25863 ft 412 kts 192°
2026-05-07 16:18 37.99009 -4.70327 25375 ft 408 kts 192°
2026-05-07 16:18 37.96185 -4.70628 24824 ft 405 kts 191°
2026-05-07 16:18 37.93376 -4.70927 24296 ft 403 kts 191°
2026-05-07 16:19 37.90587 -4.71224 23787 ft 400 kts 191°
2026-05-07 16:19 37.87819 -4.71518 23270 ft 397 kts 191°
2026-05-07 16:19 37.85078 -4.71810 22724 ft 393 kts 191°
2026-05-07 16:19 37.82352 -4.72101 22169 ft 390 kts 191°
2026-05-07 16:20 37.79692 -4.72385 21644 ft 387 kts 190°
2026-05-07 16:20 37.77011 -4.72670 21131 ft 384 kts 190°
2026-05-07 16:20 37.74356 -4.72953 20602 ft 381 kts 190°
2026-05-07 16:20 37.71706 -4.73235 20084 ft 379 kts 189°
2026-05-07 16:21 37.69084 -4.73513 19568 ft 377 kts 189°
2026-05-07 16:21 37.66476 -4.73789 19098 ft 374 kts 189°
2026-05-07 16:21 37.63887 -4.74063 18625 ft 371 kts 189°
2026-05-07 16:21 37.61319 -4.74335 18145 ft 369 kts 189°
2026-05-07 16:22 37.58768 -4.74605 17642 ft 366 kts 189°
2026-05-07 16:22 37.56241 -4.74874 17176 ft 363 kts 188°
2026-05-07 16:22 37.53725 -4.75141 16687 ft 360 kts 188°
2026-05-07 16:22 37.51276 -4.75400 16214 ft 357 kts 188°
2026-05-07 16:23 37.48811 -4.75661 15755 ft 354 kts 188°
2026-05-07 16:23 37.46359 -4.75922 15300 ft 351 kts 187°
2026-05-07 16:23 37.43931 -4.76180 14843 ft 348 kts 187°
2026-05-07 16:23 37.41527 -4.76435 14398 ft 345 kts 187°
2026-05-07 16:24 37.39139 -4.76688 13964 ft 342 kts 187°
2026-05-07 16:24 37.36776 -4.76937 13527 ft 339 kts 186°
2026-05-07 16:24 37.34464 -4.77179 13051 ft 337 kts 186°
2026-05-07 16:24 37.32143 -4.77422 12592 ft 334 kts 186°
2026-05-07 16:25 37.29838 -4.77663 12158 ft 331 kts 186°
2026-05-07 16:25 37.27549 -4.77902 11690 ft 328 kts 186°
2026-05-07 16:25 37.25283 -4.78138 11340 ft 323 kts 186°
2026-05-07 16:25 37.23093 -4.78367 11211 ft 310 kts 186°
2026-05-07 16:26 37.20984 -4.78587 11098 ft 297 kts 186°
2026-05-07 16:26 37.18965 -4.78797 10994 ft 285 kts 186°
2026-05-07 16:26 37.17011 -4.79001 10770 ft 279 kts 186°
2026-05-07 16:26 37.15714 -4.79137 10657 ft 272 kts 186°
2026-05-07 16:27 37.13278 -4.79383 10519 ft 257 kts 186°
2026-05-07 16:27 37.11507 -4.79560 10270 ft 253 kts 186°
2026-05-07 16:27 37.09759 -4.79748 9943 ft 252 kts 186°
2026-05-07 16:27 37.08014 -4.79938 9616 ft 251 kts 186°
2026-05-07 16:28 37.06274 -4.80105 9265 ft 251 kts 182°
2026-05-07 16:28 37.04535 -4.80083 8945 ft 249 kts 181°
2026-05-07 16:28 37.02820 -4.80059 8598 ft 248 kts 181°
2026-05-07 16:28 37.01092 -4.80036 8275 ft 247 kts 181°
2026-05-07 16:29 36.99378 -4.80014 7958 ft 246 kts 181°
2026-05-07 16:29 36.97664 -4.79996 7667 ft 245 kts 181°
2026-05-07 16:29 36.95960 -4.79979 7404 ft 242 kts 181°
2026-05-07 16:29 36.94314 -4.79958 7319 ft 231 kts 179°
2026-05-07 16:30 36.93266 -4.79841 7241 ft 226 kts 171°
2026-05-07 16:30 36.91284 -4.79110 6896 ft 224 kts 161°
2026-05-07 16:30 36.89832 -4.78381 6626 ft 224 kts 156°
2026-05-07 16:30 36.88496 -4.77402 6345 ft 223 kts 140°
2026-05-07 16:31 36.87718 -4.76567 6003 ft 226 kts 127°
2026-05-07 16:31 36.86636 -4.75107 5540 ft 227 kts 127°
2026-05-07 16:31 36.85552 -4.73716 5274 ft 220 kts 125°
2026-05-07 16:31 36.84592 -4.72239 5014 ft 221 kts 123°
2026-05-07 16:32 36.83486 -4.70648 5002 ft 269 kts 124°
2026-05-07 16:32 36.82180 -4.68673 4820 ft 319 kts 126°
2026-05-07 16:32 36.80481 -4.66626 4687 ft 361 kts 144°
2026-05-07 16:32 36.78408 -4.64748 5225 ft 350 kts 142°
2026-05-07 16:33 36.76621 -4.63025 5494 ft 305 kts 142°
2026-05-07 16:33 36.75051 -4.61390 5022 ft 287 kts 137°
2026-05-07 16:33 36.73805 -4.59594 4444 ft 261 kts 124°
2026-05-07 16:33 36.72874 -4.57811 3341 ft 241 kts 126°
2026-05-07 16:34 36.71866 -4.56179 2352 ft 227 kts 131°
2026-05-07 16:34 36.70938 -4.54696 1454 ft 214 kts 125°
2026-05-07 16:34 36.70047 -4.53440 918 ft 187 kts 129°
2026-05-07 16:34 36.69605 -4.52463 762 ft 163 kts 105°
2026-05-07 16:35 36.69237 -4.51137 175 ft 158 kts 114°
2026-05-07 16:35 36.68784 -4.50035 49 ft 102 kts 117°
2026-05-07 16:35 36.68627 -4.49652 47 ft 31 kts 117°
2026-05-07 16:35 36.68553 -4.49493 47 ft 19 kts 129°
2026-05-07 16:36 36.68453 -4.49371 45 ft 21 kts 142°
2026-05-07 16:36 36.68309 -4.49320 40 ft 23 kts 199°
2026-05-07 16:36 36.68215 -4.49395 41 ft 12 kts 220°
2026-05-07 16:36 36.68138 -4.49478 41 ft 18 kts 222°
2026-05-07 16:37 36.68025 -4.49547 41 ft 20 kts 168°
2026-05-07 16:37 36.67942 -4.49460 41 ft 11 kts 130°
2026-05-07 16:37 36.67888 -4.49395 41 ft 8 kts 158°
2026-05-07 16:37 36.67843 -4.49418 40 ft 7 kts 215°
2026-05-07 16:38 36.67837 -4.49423 41 ft 0 kts 214°